QPF
0.01 0.01 0.01 0.01 0.01 0.01 0.01 0.02 0.02 0.01 0.01 0.01 0.01 0.01 0.01 0.01 0.01 0.01 0.01 0.02 0.02 0.02 0.01 0.02 0.01 0.01 0.01 0.01 0.02 0.02 0.02 0.03 0.03 0.03 0.03 0.03 0.05 0.07 0.08 0.08 0.08 0.06 0.05 0.05
0.02 0.01 0.01 0.01 0.01 0.01 0.00 0.01 0.01 0.01 0.01 0.01 0.01 0.01 0.01 0.01 0.01 0.01 0.01 0.01 0.01 0.01 0.01 0.01 0.01 0.01 0.01 0.02 0.01 0.02 0.02 0.02 0.03 0.03 0.04 0.04 0.04 0.03 0.03 0.05 0.05 0.04 0.04 0.04
0.05 0.03 0.02 0.01 0.01 0.01 0.01 0.00 0.00 0.00 0.01 0.01 0.01 0.01 0.01 0.01 0.01 0.01 0.01 0.02 0.02 0.02 0.02 0.02 0.02 0.02 0.01 0.01 0.02 0.01 0.01 0.02 0.02 0.02 0.02 0.03 0.03 0.03 0.03 0.03 0.03 0.03 0.04 0.04
0.04 0.05 0.04 0.02 0.01 0.01 0.01 0.01 0.01 0.01 0.01 0.01 0.01 0.01 0.02 0.02 0.01 0.01 0.01 0.02 0.03 0.02 0.02 0.01 0.01 0.01 0.01 0.01 0.02 0.01 0.01 0.02 0.02 0.01 0.01 0.01 0.02 0.03 0.03 0.03 0.02 0.02 0.04 0.06
0.02 0.03 0.03 0.02 0.02 0.02 0.02 0.01 0.01 0.01 0.00 0.00 0.01 0.01 0.02 0.01 0.01 0.01 0.01 0.01 0.01 0.01 0.01 0.01 0.01 0.01 0.01 0.02 0.02 0.02 0.02 0.01 0.01 0.01 0.01 0.01 0.02 0.02 0.02 0.03 0.02 0.01 0.03 0.06
0.01 0.02 0.02 0.02 0.02 0.02 0.01 0.01 0.00 0.00 0.00 0.00 0.01 0.01 0.02 0.01 0.01 0.01 0.01 0.01 0.00 0.00 0.00 0.01 0.01 0.01 0.01 0.02 0.02 0.02 0.01 0.01 0.01 0.01 0.02 0.02 0.02 0.02 0.02 0.02 0.02 0.01 0.02 0.04
0.01 0.01 0.01 0.01 0.02 0.01 0.01 0.02 0.01 0.01 0.01 0.01 0.01 0.02 0.01 0.01 0.01 0.02 0.01 0.01 0.00 0.00 0.01 0.01 0.01 0.01 0.02 0.03 0.03 0.03 0.03 0.02 0.02 0.02 0.02 0.02 0.02 0.02 0.02 0.02 0.02 0.02 0.02 0.03
0.02 0.02 0.02 0.01 0.01 0.03 0.03 0.02 0.03 0.04 0.03 0.03 0.03 0.02 0.02 0.02 0.02 0.02 0.01 0.00 0.00 0.00 0.01 0.01 0.01 0.02 0.02 0.03 0.04 0.03 0.03 0.02 0.02 0.01 0.01 0.01 0.01 0.01 0.02 0.02 0.03 0.03 0.02 0.02
0.02 0.03 0.02 0.01 0.02 0.02 0.03 0.04 0.06 0.06 0.04 0.03 0.03 0.02 0.02 0.02 0.02 0.01 0.01 0.01 0.01 0.00 0.00 0.01 0.01 0.02 0.02 0.02 0.02 0.03 0.03 0.02 0.02 0.02 0.02 0.01 0.02 0.01 0.02 0.02 0.02 0.02 0.02 0.01
0.02 0.02 0.01 0.01 0.01 0.02 0.02 0.02 0.03 0.04 0.04 0.03 0.02 0.02 0.02 0.01 0.01 0.01 0.01 0.01 0.01 0.00 0.00 0.00 0.00 0.01 0.01 0.02 0.02 0.03 0.03 0.03 0.04 0.03 0.03 0.03 0.02 0.02 0.02 0.02 0.02 0.02 0.02 0.01
0.02 0.01 0.01 0.01 0.01 0.01 0.01 0.01 0.02 0.03 0.04 0.03 0.03 0.03 0.03 0.03 0.02 0.01 0.01 0.01 0.01 0.01 0.01 0.01 0.01 0.01 0.01 0.02 0.03 0.03 0.04 0.05 0.05 0.04 0.03 0.03 0.02 0.02 0.01 0.01 0.01 0.01 0.01 0.01
0.01 0.01 0.01 0.01 0.01 0.01 0.01 0.02 0.02 0.04 0.04 0.04 0.05 0.06 0.06 0.04 0.03 0.03 0.02 0.01 0.01 0.01 0.01 0.01 0.01 0.01 0.01 0.02 0.03 0.04 0.05 0.06 0.07 0.07 0.05 0.03 0.03 0.02 0.01 0.01 0.01 0.00 0.00 0.00
0.01 0.00 0.01 0.01 0.00 0.00 0.01 0.02 0.03 0.03 0.04 0.05 0.05 0.06 0.06 0.05 0.05 0.04 0.04 0.03 0.02 0.02 0.02 0.01 0.01 0.01 0.01 0.01 0.03 0.04 0.05 0.06 0.07 0.08 0.08 0.05 0.03 0.03 0.02 0.01 0.01 0.00 0.00 0.00
0.01 0.01 0.01 0.01 0.01 0.01 0.01 0.02 0.03 0.02 0.04 0.06 0.05 0.04 0.04 0.04 0.05 0.05 0.05 0.04 0.03 0.02 0.02 0.02 0.01 0.01 0.01 0.01 0.01 0.02 0.03 0.04 0.05 0.06 0.08 0.07 0.05 0.03 0.02 0.02 0.01 0.01 0.00 0.00
0.01 0.01 0.01 0.01 0.01 0.01 0.01 0.01 0.01 0.01 0.02 0.03 0.04 0.05 0.05 0.05 0.05 0.05 0.05 0.04 0.04 0.03 0.02 0.02 0.02 0.02 0.02 0.02 0.01 0.02 0.02 0.04 0.06 0.06 0.06 0.06 0.05 0.03 0.03 0.03 0.02 0.01 0.01 0.01
0.01 0.01 0.01 0.01 0.01 0.01 0.01 0.01 0.01 0.01 0.02 0.02 0.02 0.03 0.05 0.06 0.06 0.06 0.05 0.04 0.05 0.04 0.03 0.02 0.02 0.02 0.03 0.02 0.03 0.03 0.02 0.03 0.04 0.04 0.04 0.04 0.03 0.03 0.03 0.03 0.02 0.02 0.01 0.01
0.01 0.01 0.02 0.02 0.01 0.01 0.01 0.01 0.01 0.02 0.03 0.03 0.02 0.01 0.01 0.02 0.03 0.03 0.03 0.03 0.04 0.03 0.02 0.01 0.01 0.01 0.01 0.01 0.01 0.01 0.01 0.02 0.02 0.03 0.04 0.03 0.03 0.03 0.02 0.03 0.03 0.03 0.02 0.02
0.01 0.01 0.02 0.01 0.01 0.01 0.01 0.01 0.02 0.02 0.02 0.02 0.02 0.01 0.01 0.02 0.01 0.01 0.01 0.02 0.02 0.02 0.01 0.01 0.01 0.01 0.00 0.01 0.02 0.02 0.02 0.01 0.01 0.02 0.04 0.04 0.03 0.03 0.03 0.03 0.03 0.03 0.04 0.03
0.01 0.01 0.01 0.01 0.01 0.01 0.01 0.01 0.02 0.02 0.01 0.02 0.02 0.01 0.01 0.03 0.02 0.01 0.01 0.01 0.02 0.01 0.01 0.00 0.00 0.00 0.01 0.01 0.02 0.03 0.03 0.03 0.02 0.02 0.03 0.04 0.04 0.04 0.03 0.03 0.03 0.03 0.03 0.03
0.01 0.01 0.01 0.01 0.01 0.01 0.01 0.01 0.02 0.02 0.01 0.01 0.01 0.01 0.02 0.02 0.01 0.01 0.01 0.01 0.01 0.01 0.00 0.00 0.00 0.01 0.01 0.01 0.01 0.02 0.02 0.03 0.03 0.03 0.04 0.06 0.05 0.04 0.04 0.03 0.03 0.03 0.03 0.04
0.01 0.01 0.01 0.01 0.01 0.01 0.01 0.02 0.02 0.01 0.01 0.01 0.01 0.01 0.01 0.01 0.01 0.01 0.01 0.01 0.01 0.00 0.01 0.01 0.00 0.01 0.01 0.01 0.01 0.01 0.01 0.02 0.03 0.03 0.03 0.04 0.04 0.04 0.05 0.05 0.04 0.03 0.04 0.04
0.01 0.01 0.02 0.01 0.01 0.01 0.01 0.02 0.02 0.02 0.01 0.01 0.01 0.01 0.01 0.01 0.01 0.01 0.01 0.01 0.00 0.00 0.00 0.01 0.01 0.01 0.01 0.01 0.01 0.01 0.01 0.02 0.02 0.02 0.02 0.02 0.03 0.03 0.04 0.04 0.03 0.02 0.02 0.04
0.01 0.02 0.02 0.01 0.01 0.01 0.01 0.01 0.01 0.01 0.01 0.01 0.01 0.01 0.01 0.02 0.01 0.01 0.01 0.01 0.01 0.00 0.00 0.01 0.01 0.01 0.01 0.01 0.01 0.02 0.03 0.03 0.02 0.03 0.03 0.02 0.03 0.03 0.03 0.03 0.02 0.02 0.02 0.02
0.02 0.02 0.02 0.01 0.01 0.01 0.01 0.01 0.01 0.01 0.01 0.00 0.01 0.01 0.01 0.02 0.03 0.02 0.01 0.00 0.00 0.01 0.01 0.01 0.01 0.01 0.01 0.01 0.02 0.02 0.03 0.05 0.04 0.03 0.03 0.04 0.04 0.04 0.04 0.04 0.04 0.03 0.03 0.02
0.02 0.02 0.02 0.02 0.02 0.02 0.02 0.02 0.01 0.01 0.01 0.01 0.01 0.01 0.01 0.02 0.03 0.01 0.01 0.01 0.01 0.01 0.01 0.01 0.01 0.01 0.01 0.01 0.02 0.02 0.03 0.04 0.04 0.03 0.03 0.03 0.03 0.04 0.05 0.05 0.05 0.05 0.03 0.03
0.03 0.03 0.03 0.03 0.03 0.04 0.04 0.04 0.03 0.02 0.02 0.01 0.01 0.01 0.02 0.03 0.03 0.01 0.01 0.01 0.00 0.01 0.01 0.01 0.01 0.01 0.01 0.02 0.02 0.03 0.02 0.03 0.03 0.03 0.03 0.03 0.03 0.04 0.05 0.04 0.05 0.05 0.04 0.03
0.02 0.03 0.03 0.04 0.04 0.04 0.04 0.04 0.04 0.04 0.03 0.02 0.01 0.01 0.02 0.03 0.04 0.02 0.01 0.01 0.01 0.01 0.01 0.01 0.01 0.01 0.01 0.02 0.02 0.02 0.03 0.03 0.04 0.03 0.03 0.05 0.05 0.04 0.04 0.04 0.04 0.05 0.04 0.02
MSLP
1003.00 1003.19 1003.20 1003.05 1002.82 1002.57 1002.39 1002.31 1002.38 1002.58 1002.90 1003.30 1003.73 1004.14 1004.50 1004.78 1005.00 1005.16 1005.29 1005.44 1005.64 1005.91 1006.26 1006.68 1007.16 1007.67 1008.18 1008.66 1009.08 1009.43 1009.69 1009.88 1010.00 1010.07 1010.09 1010.07 1010.04 1009.99 1009.94 1009.87 1009.79 1009.71 1009.62 1009.52
1003.05 1003.23 1003.19 1002.95 1002.61 1002.26 1001.98 1001.86 1001.93 1002.21 1002.66 1003.24 1003.88 1004.51 1005.08 1005.54 1005.89 1006.13 1006.30 1006.44 1006.58 1006.77 1007.02 1007.35 1007.74 1008.16 1008.60 1009.00 1009.35 1009.62 1009.82 1009.93 1009.97 1009.95 1009.90 1009.83 1009.75 1009.67 1009.59 1009.51 1009.43 1009.33 1009.23 1009.11
1003.01 1003.17 1003.06 1002.75 1002.33 1001.89 1001.55 1001.40 1001.48 1001.81 1002.36 1003.08 1003.88 1004.69 1005.43 1006.04 1006.51 1006.84 1007.06 1007.20 1007.32 1007.46 1007.65 1007.91 1008.24 1008.60 1008.97 1009.31 1009.60 1009.82 1009.95 1009.99 1009.96 1009.88 1009.77 1009.64 1009.51 1009.39 1009.29 1009.19 1009.08 1008.97 1008.84 1008.69
1002.89 1003.00 1002.84 1002.48 1002.01 1001.53 1001.16 1001.00 1001.10 1001.47 1002.09 1002.91 1003.82 1004.75 1005.61 1006.34 1006.91 1007.31 1007.57 1007.73 1007.85 1007.98 1008.14 1008.36 1008.63 1008.95 1009.28 1009.58 1009.82 1009.99 1010.07 1010.06 1009.97 1009.84 1009.67 1009.49 1009.32 1009.16 1009.02 1008.89 1008.76 1008.62 1008.45 1008.26
1002.71 1002.77 1002.59 1002.21 1001.73 1001.26 1000.91 1000.77 1000.90 1001.31 1001.98 1002.85 1003.83 1004.83 1005.76 1006.55 1007.18 1007.63 1007.93 1008.11 1008.24 1008.35 1008.50 1008.69 1008.94 1009.22 1009.51 1009.78 1009.99 1010.11 1010.15 1010.10 1009.97 1009.79 1009.57 1009.35 1009.14 1008.94 1008.76 1008.60 1008.44 1008.26 1008.06 1007.81
1002.53 1002.56 1002.38 1002.03 1001.59 1001.18 1000.89 1000.80 1000.98 1001.43 1002.12 1003.01 1004.01 1005.02 1005.96 1006.78 1007.42 1007.89 1008.20 1008.40 1008.52 1008.63 1008.77 1008.94 1009.16 1009.41 1009.67 1009.90 1010.07 1010.17 1010.17 1010.09 1009.93 1009.71 1009.45 1009.19 1008.94 1008.71 1008.50 1008.30 1008.11 1007.90 1007.65 1007.37
1002.41 1002.44 1002.29 1002.01 1001.67 1001.36 1001.17 1001.17 1001.40 1001.88 1002.58 1003.45 1004.42 1005.39 1006.30 1007.08 1007.70 1008.15 1008.45 1008.64 1008.76 1008.86 1008.98 1009.13 1009.32 1009.53 1009.76 1009.95 1010.09 1010.15 1010.12 1010.01 1009.81 1009.56 1009.27 1008.98 1008.70 1008.43 1008.19 1007.96 1007.74 1007.51 1007.24 1006.93
1002.39 1002.45 1002.38 1002.22 1002.01 1001.84 1001.77 1001.87 1002.16 1002.66 1003.34 1004.16 1005.06 1005.95 1006.77 1007.48 1008.03 1008.44 1008.71 1008.87 1008.98 1009.06 1009.15 1009.28 1009.44 1009.62 1009.79 1009.95 1010.04 1010.07 1010.00 1009.85 1009.62 1009.34 1009.02 1008.70 1008.38 1008.08 1007.82 1007.57 1007.33 1007.08 1006.81 1006.50
1002.50 1002.63 1002.67 1002.65 1002.60 1002.58 1002.64 1002.83 1003.18 1003.69 1004.33 1005.07 1005.86 1006.63 1007.34 1007.94 1008.41 1008.75 1008.97 1009.10 1009.18 1009.25 1009.32 1009.42 1009.54 1009.68 1009.81 1009.91 1009.96 1009.94 1009.83 1009.63 1009.37 1009.05 1008.70 1008.34 1007.99 1007.66 1007.37 1007.10 1006.85 1006.61 1006.35 1006.06
1002.75 1002.97 1003.14 1003.26 1003.37 1003.50 1003.68 1003.96 1004.34 1004.83 1005.41 1006.04 1006.70 1007.34 1007.91 1008.39 1008.77 1009.04 1009.21 1009.32 1009.38 1009.44 1009.49 1009.57 1009.66 1009.76 1009.85 1009.89 1009.89 1009.80 1009.64 1009.40 1009.09 1008.72 1008.33 1007.92 1007.54 1007.18 1006.86 1006.57 1006.32 1006.08 1005.85 1005.60
1003.13 1003.44 1003.73 1003.98 1004.23 1004.48 1004.76 1005.10 1005.49 1005.93 1006.43 1006.95 1007.48 1007.97 1008.41 1008.78 1009.07 1009.28 1009.42 1009.51 1009.58 1009.63 1009.69 1009.76 1009.83 1009.89 1009.93 1009.92 1009.85 1009.71 1009.49 1009.19 1008.82 1008.40 1007.95 1007.50 1007.07 1006.67 1006.31 1006.01 1005.75 1005.52 1005.31 1005.10
1003.60 1003.99 1004.37 1004.73 1005.08 1005.41 1005.76 1006.11 1006.48 1006.87 1007.28 1007.69 1008.08 1008.45 1008.78 1009.06 1009.28 1009.46 1009.59 1009.69 1009.78 1009.85 1009.93 1010.00 1010.06 1010.09 1010.09 1010.03 1009.90 1009.70 1009.41 1009.04 1008.61 1008.13 1007.62 1007.12 1006.63 1006.18 1005.79 1005.45 1005.17 1004.94 1004.74 1004.56
1004.12 1004.56 1005.00 1005.42 1005.82 1006.20 1006.57 1006.91 1007.25 1007.58 1007.90 1008.20 1008.49 1008.76 1009.00 1009.22 1009.41 1009.58 1009.73 1009.87 1009.99 1010.11 1010.21 1010.30 1010.36 1010.38 1010.34 1010.23 1010.05 1009.78 1009.42 1008.99 1008.49 1007.95 1007.39 1006.82 1006.28 1005.78 1005.34 1004.96 1004.65 1004.40 1004.20 1004.04
1004.65 1005.11 1005.57 1006.01 1006.42 1006.81 1007.16 1007.48 1007.77 1008.04 1008.28 1008.51 1008.72 1008.93 1009.13 1009.32 1009.51 1009.70 1009.89 1010.07 1010.25 1010.42 1010.56 1010.67 1010.73 1010.74 1010.67 1010.52 1010.28 1009.95 1009.53 1009.04 1008.49 1007.89 1007.27 1006.65 1006.06 1005.51 1005.02 1004.60 1004.25 1003.97 1003.75 1003.57
1005.16 1005.60 1006.04 1006.46 1006.86 1007.22 1007.55 1007.84 1008.09 1008.31 1008.50 1008.68 1008.86 1009.03 1009.22 1009.42 1009.63 1009.86 1010.10 1010.34 1010.57 1010.78 1010.96 1011.09 1011.15 1011.14 1011.04 1010.85 1010.56 1010.18 1009.71 1009.18 1008.58 1007.94 1007.28 1006.63 1006.00 1005.41 1004.88 1004.42 1004.03 1003.71 1003.45 1003.23
1005.62 1006.02 1006.42 1006.80 1007.17 1007.50 1007.79 1008.05 1008.28 1008.47 1008.65 1008.82 1008.98 1009.16 1009.36 1009.58 1009.83 1010.10 1010.39 1010.67 1010.95 1011.19 1011.39 1011.52 1011.58 1011.55 1011.42 1011.19 1010.86 1010.44 1009.94 1009.37 1008.75 1008.09 1007.42 1006.75 1006.11 1005.50 1004.95 1004.46 1004.03 1003.66 1003.36 1003.10
1006.03 1006.38 1006.73 1007.07 1007.39 1007.69 1007.97 1008.21 1008.43 1008.63 1008.81 1008.99 1009.18 1009.38 1009.61 1009.86 1010.14 1010.45 1010.76 1011.07 1011.36 1011.62 1011.82 1011.94 1011.98 1011.92 1011.76 1011.50 1011.14 1010.70 1010.18 1009.60 1008.97 1008.32 1007.66 1007.00 1006.37 1005.77 1005.22 1004.72 1004.27 1003.87 1003.52 1003.22
1006.39 1006.69 1007.00 1007.30 1007.59 1007.87 1008.14 1008.39 1008.63 1008.85 1009.06 1009.28 1009.49 1009.73 1009.98 1010.26 1010.56 1010.87 1011.19 1011.51 1011.79 1012.03 1012.20 1012.30 1012.31 1012.22 1012.04 1011.75 1011.37 1010.92 1010.40 1009.83 1009.23 1008.60 1007.98 1007.36 1006.76 1006.20 1005.67 1005.18 1004.73 1004.32 1003.94 1003.59
1006.73 1007.00 1007.27 1007.55 1007.82 1008.10 1008.38 1008.66 1008.92 1009.18 1009.43 1009.68 1009.93 1010.19 1010.46 1010.74 1011.04 1011.34 1011.64 1011.92 1012.17 1012.38 1012.51 1012.58 1012.55 1012.44 1012.23 1011.93 1011.55 1011.10 1010.60 1010.06 1009.49 1008.92 1008.35 1007.79 1007.24 1006.73 1006.24 1005.78 1005.35 1004.95 1004.56 1004.19
1007.09 1007.34 1007.59 1007.85 1008.13 1008.42 1008.72 1009.02 1009.32 1009.61 1009.90 1010.18 1010.45 1010.72 1010.99 1011.25 1011.52 1011.79 1012.04 1012.28 1012.48 1012.63 1012.73 1012.75 1012.70 1012.57 1012.35 1012.05 1011.69 1011.26 1010.79 1010.29 1009.78 1009.26 1008.74 1008.25 1007.77 1007.31 1006.88 1006.46 1006.07 1005.68 1005.30 1004.92
1007.49 1007.73 1007.98 1008.23 1008.52 1008.82 1009.13 1009.46 1009.79 1010.11 1010.42 1010.71 1010.99 1011.25 1011.50 1011.73 1011.95 1012.16 1012.35 1012.53 1012.67 1012.78 1012.84 1012.84 1012.77 1012.64 1012.43 1012.15 1011.81 1011.43 1011.00 1010.54 1010.08 1009.61 1009.16 1008.72 1008.29 1007.89 1007.51 1007.14 1006.77 1006.41 1006.04 1005.66
1007.95 1008.18 1008.42 1008.68 1008.97 1009.28 1009.61 1009.95 1010.29 1010.63 1010.94 1011.23 1011.49 1011.73 1011.93 1012.11 1012.27 1012.42 1012.55 1012.67 1012.77 1012.83 1012.87 1012.86 1012.80 1012.68 1012.50 1012.25 1011.96 1011.61 1011.23 1010.82 1010.40 1009.98 1009.56 1009.16 1008.78 1008.42 1008.07 1007.73 1007.40 1007.05 1006.70 1006.33
1008.45 1008.68 1008.92 1009.17 1009.45 1009.76 1010.10 1010.44 1010.78 1011.11 1011.42 1011.69 1011.92 1012.10 1012.26 1012.38 1012.48 1012.57 1012.64 1012.71 1012.77 1012.81 1012.84 1012.83 1012.79 1012.71 1012.57 1012.37 1012.12 1011.83 1011.49 1011.12 1010.73 1010.33 1009.94 1009.56 1009.20 1008.85 1008.52 1008.19 1007.87 1007.54 1007.19 1006.83
1008.96 1009.18 1009.40 1009.65 1009.92 1010.22 1010.55 1010.88 1011.21 1011.53 1011.81 1012.05 1012.24 1012.38 1012.49 1012.55 1012.60 1012.63 1012.65 1012.68 1012.71 1012.74 1012.77 1012.79 1012.78 1012.74 1012.65 1012.50 1012.30 1012.05 1011.75 1011.41 1011.04 1010.66 1010.27 1009.88 1009.51 1009.16 1008.82 1008.49 1008.16 1007.83 1007.48 1007.12
1009.42 1009.63 1009.84 1010.07 1010.33 1010.62 1010.93 1011.25 1011.57 1011.86 1012.12 1012.33 1012.48 1012.59 1012.64 1012.66 1012.65 1012.64 1012.62 1012.62 1012.63 1012.66 1012.70 1012.74 1012.76 1012.76 1012.72 1012.62 1012.46 1012.25 1011.98 1011.65 1011.29 1010.90 1010.50 1010.10 1009.71 1009.33 1008.96 1008.61 1008.27 1007.92 1007.57 1007.19
1009.81 1009.99 1010.18 1010.39 1010.64 1010.92 1011.23 1011.54 1011.85 1012.13 1012.37 1012.56 1012.69 1012.76 1012.77 1012.75 1012.70 1012.65 1012.60 1012.57 1012.56 1012.58 1012.63 1012.68 1012.72 1012.75 1012.74 1012.68 1012.55 1012.36 1012.11 1011.80 1011.43 1011.03 1010.61 1010.19 1009.76 1009.35 1008.95 1008.57 1008.20 1007.84 1007.47 1007.10
1010.09 1010.24 1010.42 1010.62 1010.87 1011.15 1011.45 1011.77 1012.08 1012.36 1012.60 1012.78 1012.89 1012.94 1012.93 1012.88 1012.80 1012.71 1012.62 1012.56 1012.53 1012.53 1012.55 1012.60 1012.65 1012.68 1012.68 1012.63 1012.52 1012.35 1012.10 1011.79 1011.42 1011.02 1010.58 1010.13 1009.68 1009.24 1008.81 1008.41 1008.02 1007.64 1007.26 1006.88
Thickness
5727 5732 5733 5730 5730 5731 5728 5728 5724 5729 5729 5730 5730 5728 5727 5726 5724 5722 5721 5719 5717 5715 5713 5712 5710 5708 5705 5703 5700 5697 5694 5690 5687 5683 5680 5676 5673 5670 5666 5663 5661 5656 5651 5648
5712 5721 5723 5719 5722 5724 5723 5725 5724 5725 5723 5730 5727 5725 5721 5719 5717 5715 5714 5713 5711 5709 5707 5706 5704 5702 5701 5698 5696 5694 5691 5688 5684 5681 5677 5673 5670 5667 5664 5660 5656 5652 5648 5645
5702 5712 5711 5705 5715 5717 5717 5721 5719 5715 5717 5720 5715 5714 5714 5713 5712 5710 5709 5707 5705 5703 5701 5699 5699 5697 5695 5694 5692 5690 5687 5684 5681 5678 5674 5671 5669 5665 5660 5656 5652 5648 5645 5642
5697 5695 5684 5704 5719 5717 5712 5712 5715 5713 5712 5711 5710 5711 5711 5710 5708 5705 5704 5702 5699 5698 5696 5695 5694 5692 5691 5690 5688 5685 5682 5680 5678 5675 5672 5669 5665 5661 5657 5653 5649 5646 5642 5639
5690 5688 5690 5696 5705 5706 5701 5699 5706 5704 5702 5703 5704 5703 5703 5704 5703 5701 5699 5696 5694 5693 5691 5690 5688 5687 5686 5685 5683 5681 5679 5677 5674 5672 5669 5666 5662 5658 5654 5650 5646 5643 5640 5636
5683 5679 5680 5687 5699 5705 5701 5689 5697 5696 5693 5693 5694 5690 5692 5695 5695 5694 5692 5690 5688 5687 5686 5683 5682 5682 5680 5679 5677 5676 5675 5673 5671 5668 5665 5662 5658 5655 5652 5647 5644 5641 5637 5634
5676 5676 5678 5684 5691 5694 5680 5677 5686 5688 5687 5686 5686 5688 5688 5688 5686 5685 5683 5682 5681 5680 5678 5677 5676 5675 5673 5673 5672 5671 5671 5669 5666 5663 5661 5658 5654 5651 5648 5645 5642 5638 5636 5632
5667 5664 5663 5674 5678 5673 5669 5675 5677 5679 5680 5679 5681 5682 5682 5680 5678 5676 5675 5674 5673 5672 5671 5670 5669 5668 5667 5666 5667 5666 5665 5663 5661 5659 5657 5655 5650 5647 5645 5642 5639 5636 5633 5631
5657 5655 5658 5664 5663 5664 5666 5666 5668 5670 5672 5673 5672 5673 5673 5671 5670 5669 5667 5666 5665 5665 5664 5662 5662 5661 5660 5660 5661 5660 5658 5656 5655 5654 5652 5650 5647 5644 5641 5639 5638 5636 5633 5632
5645 5648 5650 5653 5654 5655 5657 5658 5661 5662 5663 5664 5663 5664 5664 5663 5662 5660 5659 5658 5658 5657 5656 5655 5654 5655 5654 5654 5654 5653 5652 5650 5649 5648 5647 5645 5643 5642 5640 5638 5635 5634 5633 5632
5632 5635 5638 5641 5643 5645 5648 5651 5653 5654 5655 5654 5655 5655 5655 5655 5654 5652 5652 5651 5651 5650 5649 5648 5647 5647 5647 5647 5647 5646 5645 5645 5645 5644 5643 5640 5638 5636 5636 5633 5632 5629 5630 5629
5621 5622 5623 5627 5634 5637 5639 5641 5643 5645 5645 5646 5647 5647 5647 5646 5645 5645 5644 5644 5643 5642 5642 5641 5641 5640 5641 5641 5641 5640 5639 5640 5641 5640 5638 5637 5635 5632 5627 5627 5624 5622 5620 5620
5611 5616 5618 5621 5626 5629 5631 5633 5635 5636 5637 5637 5638 5638 5638 5638 5637 5637 5636 5636 5635 5635 5634 5634 5633 5633 5633 5634 5634 5633 5633 5633 5635 5635 5634 5633 5632 5630 5627 5622 5619 5617 5616 5615
5604 5606 5608 5613 5617 5620 5623 5625 5627 5627 5627 5627 5628 5628 5629 5629 5628 5628 5627 5627 5628 5628 5627 5627 5627 5626 5627 5627 5627 5627 5628 5628 5628 5629 5630 5630 5628 5627 5626 5624 5622 5621 5616 5612
5594 5598 5600 5605 5608 5611 5614 5616 5616 5616 5617 5618 5619 5618 5618 5618 5618 5618 5618 5619 5619 5620 5620 5620 5620 5619 5620 5620 5620 5621 5622 5624 5624 5625 5625 5626 5625 5624 5624 5623 5622 5622 5621 5615
5585 5590 5594 5596 5598 5600 5603 5605 5605 5606 5608 5609 5610 5610 5610 5610 5610 5610 5610 5610 5610 5611 5612 5612 5612 5613 5613 5614 5614 5615 5617 5616 5616 5619 5621 5622 5622 5621 5620 5620 5620 5619 5619 5618
5574 5578 5581 5584 5586 5589 5591 5594 5596 5597 5599 5601 5601 5602 5602 5602 5602 5602 5602 5603 5603 5604 5604 5604 5604 5605 5607 5608 5609 5612 5614 5614 5611 5614 5617 5618 5618 5617 5617 5616 5616 5616 5617 5616
5567 5569 5571 5574 5577 5580 5583 5585 5587 5588 5590 5592 5593 5594 5594 5594 5594 5594 5595 5595 5596 5598 5598 5598 5598 5598 5601 5602 5603 5607 5609 5610 5611 5612 5612 5613 5613 5614 5614 5613 5612 5612 5612 5611
5560 5562 5564 5566 5569 5571 5575 5577 5578 5580 5581 5583 5584 5584 5585 5586 5587 5587 5588 5589 5590 5591 5591 5592 5589 5592 5595 5597 5596 5600 5603 5605 5606 5606 5606 5604 5606 5608 5609 5609 5609 5608 5608 5607
5553 5555 5558 5560 5562 5564 5567 5568 5570 5570 5572 5573 5574 5575 5576 5577 5579 5580 5580 5582 5583 5585 5585 5585 5585 5587 5589 5591 5589 5596 5599 5600 5600 5601 5601 5601 5601 5602 5603 5603 5603 5602 5602 5602
5544 5547 5550 5553 5555 5557 5559 5560 5561 5561 5562 5564 5564 5565 5567 5568 5570 5572 5574 5576 5576 5577 5578 5577 5579 5582 5583 5583 5582 5591 5594 5595 5595 5595 5596 5596 5596 5596 5597 5596 5596 5597 5597 5597
5536 5539 5542 5545 5547 5550 5551 5552 5553 5553 5554 5555 5557 5558 5559 5560 5563 5565 5566 5567 5569 5567 5570 5573 5575 5573 5574 5573 5581 5586 5589 5589 5590 5590 5590 5591 5591 5591 5591 5591 5591 5592 5592 5593
5529 5532 5535 5537 5540 5542 5545 5546 5546 5547 5547 5548 5550 5550 5552 5553 5556 5558 5559 5560 5562 5559 5562 5566 5564 5562 5561 5568 5575 5580 5582 5583 5584 5584 5585 5585 5586 5586 5587 5587 5587 5587 5587 5588
5522 5525 5528 5531 5533 5536 5537 5539 5540 5540 5541 5543 5544 5545 5546 5548 5550 5552 5553 5551 5551 5550 5557 5557 5554 5555 5554 5564 5568 5572 5574 5576 5577 5578 5580 5580 5581 5582 5582 5582 5582 5582 5583 5582
5516 5519 5521 5524 5526 5530 5532 5533 5535 5536 5538 5539 5540 5541 5542 5543 5544 5546 5546 5546 5544 5544 5550 5551 5548 5548 5553 5559 5562 5564 5566 5568 5570 5571 5572 5573 5574 5575 5575 5576 5577 5577 5577 5577
5511 5513 5515 5517 5520 5523 5527 5528 5530 5531 5534 5535 5535 5536 5537 5537 5538 5539 5539 5540 5541 5540 5544 5546 5547 5546 5550 5552 5554 5555 5558 5560 5562 5564 5565 5566 5567 5568 5569 5570 5571 5572 5572 5572
5507 5509 5511 5514 5518 5519 5521 5523 5524 5525 5526 5527 5528 5529 5531 5532 5532 5533 5534 5535 5536 5538 5539 5540 5542 5543 5545 5546 5547 5547 5549 5551 5554 5556 5558 5559 5560 5562 5563 5564 5565 5566 5567 5567